Retour au catalogue

STARLINK-34248

ActifCommunicationsVLEO
NORAD 64928·PAYLOAD·🇺🇸 United States

Lancé Jul 26, 2025 depuis Cape Canaveral Space Force Station

Loading…

Prochains Passages (prochaines 24 heures)

TLE

FraisSource: CelesTrak SupGP

Époque: Sep 14, 2026, 21:37 UTC

1 64928C 25157AA  26257.90118056 -.00000519  00000+0 -15345-4 0  2576
2 64928  53.1586 184.1344 0001358  81.3053 164.0937 15.34392116    17

Suivez STARLINK-34248 en temps réel avec AllMySat

Download on the App Store